Regional Weather Roundup
Issued by NWS Albany, NY

Home | Current Version | Previous Version | Text Only | Print | Product List | Glossary On
Versions: 1 2 3 4 5 6 7 8 9 10 11 12 13 14 15 16 17 18 19 20 21 22 23 24 25 26 27
000
ASUS41 KALY 232310
RWRALY

NEW YORK STATE HOURLY WEATHER ROUNDUP
NATIONAL WEATHER SERVICE ALBANY NY
600 PM EST MON JAN 23 2017

NOTE: "FAIR" INDICATES FEW OR NO CLOUDS BELOW 12,000 FEET WITH NO
SIGNIFICANT WEATHER AND/OR NO OBSTRUCTIONS TO VISIBILITY.

NYZ032-033-038>043-046>054-057>066-NYZ062>081-082-084-240000-
EAST


CITY           SKY/WX    TMP DP  RH WIND       PRES   REMARKS
ALBANY         CLOUDY    35  24  64 NE12      29.87F WCI  27
GLENS FALLS    CLOUDY    34  23  64 NE12      29.90F WCI  25
POUGHKEEPSIE   CLOUDY    35  29  78 N13G22    29.75S WCI  26
NEWBURGH       LGT RAIN  36  32  87 NE17G25   29.74S WCI  25
MONTGOMERY     LGT RAIN  36  29  75 NE15G26   29.72R WCI  27
WHITE PLAINS   LGT RAIN  36  31  82 NE8G21    29.66S WCI  30
ISLIP          RAIN      38  36  92 NE23G40   29.64R FOG     WCI  27
NEW YORK CITY  RAIN      39  34  82 NE25G37   29.67R WCI  28
CENTRAL PARK   RAIN      37  34  89 E10G26    29.68R FOG     WCI  30
$$

NYZ005>009-017-018-044>046-055-056-240000-
CENTRAL


CITY           SKY/WX    TMP DP  RH WIND       PRES   REMARKS
FULTON         MOCLDY    36  25  64 E7        29.79S WCI  30
SYRACUSE       MOCLDY    35  26  69 E18       29.78S WCI  24
ROME           MOCLDY    35  25  66 E13G24    29.82S WCI  26
ELMIRA         FLURRIES  38  26  62 E12       29.70R WCI  30
BINGHAMTON     MIX PCPN  31  24  75 E16G22    29.68R WCI  20
MONTICELLO     CLOUDY    30  27  86 E21G28    29.69R WCI  17
$$

NYZ026>034-041>043-087-240000-
NORTH


CITY           SKY/WX    TMP DP  RH WIND       PRES   REMARKS
WATERTOWN      CLOUDY    33  30  88 NE10      29.82R WCI  25
FORT DRUM      NOT AVBL
OGDENSBURG     FAIR      32  28  83 NE13      29.89S WCI  22
MASSENA        MOCLDY    32  25  75 NE16      29.94R WCI  21
SARANAC LAKE   CLOUDY    28  21  75 NE12      29.83S WCI  18
PLATTSBURGH    CLOUDY    34  22  61 SE8       29.97F WCI  27
$$

NYZ001>004-010>016-019>021-085-240000-
WEST


CITY           SKY/WX    TMP DP  RH WIND       PRES   REMARKS
NIAGARA FALLS  CLOUDY    40  31  70 E15       29.74R WCI  32
BUFFALO        MOCLDY    39  31  72 NE12      29.72R WCI  32
DUNKIRK        CLOUDY    43  37  79 NE12      29.68R
JAMESTOWN      MOCLDY    43  34  70 NE3       29.63R
WELLSVILLE     LGT RAIN  38  31  76 NE8       29.65R WCI  32
ROCHESTER      MOCLDY    38  28  67 E10G24    29.77R WCI  31
PENN YAN       CLOUDY    37  28  70 VRB6      29.73R WCI  32
$$

             KEY
       WCI = WIND CHILL INDEX
       VSB = VISIBILITY
       HX  = HEAT INDEX
$$




USA.gov is the U.S. government's official web portal to all federal, state and local government web resources and services.